K5AGY Weather Reports


Display with metric or nautical units.
time (UTC)temp
F
wind
direction
speed
MPH
gust
MPH
rain 1hr
in
rain 24hr
in
rain mn
in
humidity
%
barometer
mb
20260508060058 65 325 3.0 5.0 0.00 0.00 0.00 70 1014.7
20260508054531 65 353 1.0 4.0 0.00 0.00 0.00 70 1014.6
20260508053104 65 26 1.0 7.0 0.00 0.00 0.00 70 1013.6
20260508051603 65 9 4.0 8.0 0.00 0.00 0.00 70 1013.5
20260508050004 65 23 2.0 8.0 0.00 0.00 0.00 70 1013.9
20260508044540 65 337 2.0 5.0 0.00 0.00 0.00 70 1014.2
20260508043017 65 1 4.0 8.0 0.00 0.00 0.00 70 1014.0
20260508041557 66 349 5.0 10.0 0.00 0.00 0.00 69 1014.4
20260508040035 65 319 3.0 6.0 0.00 0.00 0.00 69 1014.8
20260508034521 65 320 2.0 4.0 0.00 0.00 0.00 70 1014.6
20260508033052 65 354 1.0 5.0 0.00 0.00 0.00 69 1014.3
20260508031524 65 9 3.0 6.0 0.00 0.00 0.00 68 1014.0
20260508030121 66 356 2.0 4.0 0.00 0.00 0.00 67 1013.6
20260508024538 66 63 0.0 4.0 0.00 0.00 0.00 67 1013.1
20260508023016 66 70 1.0 6.0 0.00 0.00 0.00 66 1013.0
20260508021555 67 50 1.0 6.0 0.00 0.00 0.00 65 1013.3
20260508020031 67 94 5.0 11.0 0.00 0.00 0.00 66 1012.1
20260508014601 67 86 4.0 10.0 0.00 0.00 0.00 65 1012.8
20260508013026 67 34 2.0 6.0 0.00 0.00 0.00 64 1013.6
20260508011502 68 28 3.0 9.0 0.00 0.00 0.00 63 1013.8
20260508010057 68 355 5.0 10.0 0.00 0.00 0.00 64 1014.0
20260508004517 68 338 4.0 9.0 0.00 0.00 0.00 64 1014.4
20260508003103 68 6 4.0 11.0 0.00 0.00 0.00 65 1014.2
20260508001532 68 7 7.0 13.0 0.00 0.00 0.00 65 1014.0
20260508000008 68 29 6.0 12.0 0.00 0.00 0.00 64 1014.3
20260507234548 68 37 3.0 10.0 0.00 0.00 0.00 64 1014.3
20260507233027 68 10 6.0 11.0 0.00 0.00 0.00 66 1014.3
20260507231502 68 356 9.0 14.0 0.00 0.00 0.00 64 1014.3
20260507230054 69 4 9.0 15.0 0.00 0.00 0.00 63 1014.5
20260507224512 69 330 6.0 16.0 0.00 0.00 0.00 64 1014.6
20260507223145 70 344 10.0 16.0 0.00 0.00 0.00 62 1014.3
20260507221531 71 12 6.0 15.0 0.00 0.00 0.00 62 1014.3
20260507220001 73 344 7.0 11.0 0.00 0.00 0.00 62 1014.3
20260507214539 73 331 7.0 13.0 0.00 0.00 0.00 62 1014.0
20260507213008 73 345 8.0 13.0 0.00 0.00 0.00 64 1014.1
20260507211549 72 9 7.0 13.0 0.00 0.00 0.00 63 1013.8
20260507210031 72 21 6.0 12.0 0.00 0.00 0.00 63 1013.9
20260507204602 72 4 6.0 12.0 0.00 0.00 0.00 63 1013.9
20260507203041 73 70 7.0 11.0 0.00 0.00 0.00 63 1014.1
20260507201514 73 58 5.0 16.0 0.00 0.00 0.00 63 1014.2
20260507200054 72 32 4.0 11.0 0.00 0.00 0.00 64 1014.6
20260507194516 71 15 5.0 11.0 0.00 0.00 0.00 66 1015.2
20260507193053 71 21 4.0 9.0 0.00 0.00 0.00 66 1015.2
20260507191528 71 352 3.0 8.0 0.00 0.00 0.00 65 1015.5
20260507190006 71 49 3.0 11.0 0.00 0.00 0.00 65 1015.3
20260507184536 71 57 3.0 10.0 0.00 0.00 0.00 64 1015.4
20260507183006 70 30 5.0 12.0 0.00 0.00 0.00 65 1015.7
20260507181535 69 302 5.0 11.0 0.00 0.00 0.00 67 1016.0
20260507180004 67 16 8.0 16.0 0.00 0.00 0.00 67 1016.4
20260507174547 67 3 7.0 14.0 0.00 0.00 0.00 70 1016.7
20260507173015 66 15 9.0 14.0 0.00 0.00 0.00 69 1016.9
20260507171556 65 4 9.0 16.0 0.00 0.00 0.00 69 1017.1
20260507170013 65 31 8.0 15.0 0.00 0.00 0.00 69 1016.9
20260507164549 64 307 9.0 14.0 0.00 0.00 0.00 70 1017.1
20260507163024 64 2 11.0 17.0 0.00 0.00 0.00 70 1017.2
20260507161609 64 344 11.0 21.0 0.00 0.00 0.00 71 1017.0
20260507160037 64 337 13.0 20.0 0.00 0.00 0.00 70 1016.7
20260507154507 63 340 10.0 17.0 0.00 0.00 0.00 73 1016.7
20260507153101 62 12 10.0 17.0 0.00 0.00 0.00 73 1016.9
20260507151515 62 329 9.0 15.0 0.00 0.00 0.00 75 1016.9
20260507150056 62 342 7.0 17.0 0.00 0.00 0.00 75 1016.9
20260507144529 62 20 7.0 14.0 0.00 0.00 0.00 75 1016.6
20260507143103 61 9 8.0 14.0 0.00 0.00 0.00 75 1016.7
20260507141538 61 16 13.0 21.0 0.00 0.00 0.00 75 1016.2
20260507140015 61 6 13.0 21.0 0.00 0.00 0.00 76 1015.9
20260507134559 61 11 12.0 22.0 0.00 0.00 0.00 76 1015.6
20260507133031 61 342 11.0 20.0 0.00 0.00 0.00 77 1015.8
20260507131510 61 352 15.0 26.0 0.00 0.00 0.00 78 1015.7
20260507130056 61 330 10.0 15.0 0.00 0.00 0.00 78 1016.7
20260507124510 61 340 8.0 14.0 0.00 0.00 0.00 77 1016.4
20260507123046 62 15 6.0 13.0 0.00 0.00 0.00 77 1015.7
20260507121512 62 1 9.0 18.0 0.00 0.00 0.00 76 1014.6
20260507120044 62 6 10.0 17.0 0.00 0.00 0.00 76 1015.2
20260507114514 63 330 8.0 15.0 0.00 0.00 0.00 75 1015.6
20260507113048 63 340 4.0 10.0 0.00 0.00 0.00 76 1015.3
20260507111517 63 336 7.0 15.0 0.00 0.00 0.00 75 1014.3
20260507110054 63 347 7.0 16.0 0.00 0.00 0.00 75 1014.4
20260507104525 63 340 7.0 13.0 0.00 0.00 0.00 74 1014.3
20260507103115 63 44 8.0 13.0 0.00 0.00 0.00 74 1014.2
20260507101541 63 360 7.0 16.0 0.00 0.00 0.00 74 1014.2
20260507100009 63 359 9.0 13.0 0.00 0.00 0.00 74 1013.7
20260507094542 63 347 9.0 14.0 0.00 0.00 0.00 73 1013.9
20260507093015 63 5 5.0 11.0 0.00 0.00 0.00 74 1014.1
20260507091553 63 323 7.0 12.0 0.00 0.00 0.00 73 1014.2
20260507090025 63 342 7.0 13.0 0.00 0.00 0.00 73 1013.6
20260507084502 64 359 5.0 12.0 0.00 0.00 0.00 73 1013.7
20260507083051 64 13 6.0 11.0 0.00 0.00 0.00 73 1013.6
20260507081517 64 2 4.0 12.0 0.00 0.00 0.00 73 1013.7
20260507080050 64 342 4.0 9.0 0.00 0.00 0.00 73 1013.8
20260507074526 64 353 7.0 12.0 0.00 0.00 0.00 72 1013.7
20260507073104 64 20 6.0 11.0 0.00 0.00 0.00 73 1013.8
20260507071538 64 14 5.0 10.0 0.00 0.00 0.00 73 1013.9
20260507070015 64 10 6.0 12.0 0.00 0.00 0.00 73 1014.1
20260507064551 64 7 6.0 13.0 0.00 0.00 0.00 73 1014.0
20260507063030 64 11 6.0 12.0 0.00 0.00 0.00 73 1013.9
20260507061601 64 2 5.0 10.0 0.00 0.00 0.00 73 1013.7